{"data":{"norad_id":62470,"epoch":"2026-09-20T23:24:39.509856Z","epoch_age_seconds":133448,"freshness":"FRESH","line1":"1 62470U 24254J   26263.97545729  .00178092  00000+0  13595-2 0  9994","line2":"2 62470  43.0004 125.9492 0004170 354.2656   5.8163 15.70874141100111","mean_motion":15.70874141,"eccentricity":0.000417,"inclination_deg":43.0004,"raan_deg":125.9492,"arg_perigee_deg":354.2656,"mean_anomaly_deg":5.8163,"bstar":0.0013595,"rev_number":10011,"period_min":91.668706130926,"perigee_km":353.58918108933,"apogee_km":359.20578284729,"semimajor_km":6734.5344819683,"source":"CELESTRAK","updated_at":"2026-09-22T09:00:49.612672Z"}}